Theta_e
303 302 303 302 301 302 301 302 300 300 301 300 299 299 299 298 298 297 293 293 291 289 288 288 288 287 287 286 285 285 286 286 287 288 289 291 294 294 295 296 300 305 307 307
302 303 302 303 302 302 302 302 301 301 300 299 298 299 299 298 297 296 294 290 289 289 287 287 287 286 286 285 285 285 285 286 286 287 288 289 292 293 294 296 299 304 307 307
303 304 302 301 301 302 302 302 302 302 298 298 297 297 296 297 295 293 292 291 289 288 286 284 285 285 285 284 284 284 284 285 285 286 287 288 290 293 295 299 303 307 308 310
303 302 302 301 301 300 301 300 299 299 295 298 296 298 297 297 296 295 293 290 288 285 284 284 284 284 284 284 284 284 284 284 285 285 286 287 288 291 294 297 300 304 306 308
302 301 301 302 302 300 299 298 298 299 293 294 297 290 295 296 296 295 293 290 286 284 283 283 283 283 283 283 283 283 283 284 283 284 284 286 287 289 292 296 299 301 301 303
302 299 300 301 299 299 298 299 301 297 297 297 294 296 299 295 292 295 292 289 286 284 284 283 283 283 283 282 282 281 282 283 282 283 283 285 286 287 290 295 296 296 297 300
304 301 298 297 299 298 296 297 293 295 302 298 298 298 299 294 292 289 287 286 283 284 283 282 281 282 282 281 280 281 281 282 282 282 282 283 284 286 289 291 292 294 295 295
307 309 299 298 299 300 298 295 294 292 295 296 299 295 299 289 284 281 281 280 284 283 282 281 281 281 280 280 280 280 281 281 281 281 282 282 283 284 286 287 290 291 291 291
305 307 296 296 296 297 300 300 296 290 286 297 294 297 299 292 287 283 281 286 284 282 281 279 280 280 279 279 279 280 280 280 280 280 281 281 281 282 283 285 287 288 288 288
302 299 299 295 296 295 297 296 297 292 293 293 296 297 300 291 288 285 283 283 281 282 281 280 278 279 279 278 279 279 279 279 280 280 280 280 280 280 281 283 284 285 285 286
300 299 300 296 293 295 294 295 296 295 293 292 296 296 289 289 282 284 283 284 278 278 279 278 277 278 278 279 279 279 279 279 279 279 279 279 279 279 280 282 282 282 283 284
298 300 305 301 290 292 295 290 292 292 292 288 291 297 281 282 278 279 283 284 279 279 277 276 276 277 278 278 279 279 279 278 279 279 279 278 278 279 279 280 280 281 281 282
300 303 303 304 297 293 291 292 292 289 288 289 293 296 281 277 281 282 280 276 278 280 277 274 275 275 277 278 279 279 279 278 278 278 278 278 278 278 278 278 279 280 280 280
298 301 302 304 300 291 291 289 293 293 286 286 294 293 294 285 281 278 277 275 273 273 272 270 271 274 278 279 279 278 278 278 278 278 278 278 278 278 278 278 279 279 279 279
297 301 295 295 293 284 286 287 292 293 287 295 288 286 294 293 283 277 272 271 273 272 271 271 270 271 277 279 279 278 279 279 279 279 279 278 278 278 279 279 279 279 279 279
296 299 294 294 284 281 286 286 289 293 284 290 293 295 285 275 271 274 273 270 271 270 269 270 270 273 278 279 279 279 278 278 278 278 278 278 278 278 278 278 278 278 278 279
298 298 296 294 289 289 292 285 285 284 280 286 288 289 277 281 276 275 274 272 272 270 269 270 271 276 279 280 279 278 278 279 279 278 278 278 278 278 278 278 278 277 277 278
299 297 296 295 293 298 292 274 280 284 281 286 284 280 280 280 276 274 270 275 273 270 270 270 274 278 278 279 279 279 278 278 278 278 278 278 278 278 278 278 278 278 277 277
296 298 298 294 287 294 297 284 285 288 290 285 290 284 276 275 277 282 273 272 274 272 273 276 277 278 278 278 278 278 278 278 278 278 278 278 278 278 278 278 278 278 278 277
296 295 296 295 293 293 293 286 282 281 294 283 283 281 280 286 290 289 274 273 271 275 277 277 277 277 278 278 278 278 278 278 277 277 277 278 278 278 278 278 278 278 278 277
295 295 294 290 290 292 290 289 290 292 294 279 278 277 284 287 288 282 275 273 276 276 277 277 277 277 278 278 278 278 278 277 277 277 277 277 277 277 277 277 277 277 277 277
297 296 294 289 289 296 287 291 294 293 282 279 277 279 284 276 273 275 277 275 274 274 276 277 277 277 278 278 278 278 277 278 277 277 277 277 277 277 277 277 277 277 277 277
299 299 298 296 296 293 287 290 286 281 287 283 284 282 284 282 279 279 279 278 277 276 276 277 277 277 278 278 278 278 278 277 277 277 277 277 277 277 277 277 277 277 276 276
297 296 298 297 297 296 296 293 288 286 288 291 290 290 287 287 283 281 280 279 279 278 277 277 276 276 277 278 278 278 278 278 277 277 277 277 277 277 277 277 276 277 277 277
299 296 297 296 297 297 296 295 294 290 286 289 289 289 289 288 284 282 281 281 280 279 277 277 276 276 277 278 278 278 278 278 277 277 277 277 277 277 277 277 277 277 277 277
294 298 299 301 300 298 299 296 296 294 294 291 289 288 288 288 288 282 282 282 280 279 277 276 276 277 278 278 278 278 278 278 278 277 277 277 277 276 276 276 276 276 277 277
Wind_Speed
3 2 6 7 8 2 3 2 6 6 7 5 9 14 16 8 8 9 8 8 6 3 3 5 7 10 9 13 16 18 19 21 20 19 19 19 18 21 26 26 25 20 22 25
2 6 3 4 3 2 2 3 7 6 3 4 9 21 20 9 6 4 8 6 5 1 3 5 9 8 8 12 17 18 18 20 20 18 21 21 22 24 27 29 26 20 18 23
5 1 5 2 2 3 3 5 4 5 6 3 9 8 5 2 3 4 4 5 4 2 4 5 8 10 10 14 16 18 21 21 21 21 20 22 23 21 20 19 15 7 13 18
5 2 3 4 4 5 3 2 1 3 5 3 5 5 6 3 5 5 7 6 3 6 5 4 7 11 13 16 17 18 21 21 18 20 19 18 21 21 20 20 17 4 6 10
3 3 3 4 4 5 7 4 3 0 3 4 3 3 8 3 5 8 8 5 6 6 6 6 5 11 13 15 16 18 20 18 21 19 18 18 22 22 21 20 16 4 2 2
5 1 1 2 1 2 2 4 3 3 3 1 5 4 6 4 6 2 4 4 5 6 5 4 7 11 12 14 16 19 17 18 19 19 18 15 18 20 20 13 5 5 5 5
1 3 2 2 1 1 6 4 3 5 2 5 3 2 11 6 6 4 2 5 6 6 2 2 5 6 10 14 18 17 18 17 19 18 16 14 14 15 14 8 5 6 7 7
3 4 3 1 2 4 2 5 4 5 3 5 2 6 6 4 1 2 3 5 4 3 3 3 4 7 11 13 15 16 18 17 18 16 14 12 11 10 9 6 3 4 4 5
0 3 2 3 1 1 2 1 2 4 2 1 4 7 5 2 5 5 5 3 5 3 2 1 5 10 12 15 15 16 15 16 15 14 12 10 9 7 5 2 2 2 2 3
1 4 2 2 2 3 1 4 3 3 3 5 6 6 5 4 6 5 6 6 5 4 4 4 5 10 13 14 15 13 13 13 13 12 9 7 6 3 1 5 6 5 4 3
2 2 1 2 4 7 1 1 1 3 4 4 3 7 5 6 5 7 6 6 5 4 3 4 6 12 14 14 13 12 12 11 11 10 8 6 4 4 6 9 9 8 7 7
1 2 4 4 3 3 1 5 4 4 5 3 3 8 3 5 5 5 7 3 3 1 2 3 7 11 13 13 13 12 11 9 9 8 8 7 6 8 12 12 12 11 14 13
0 2 3 1 1 3 1 3 3 4 3 6 5 6 3 4 6 6 6 4 3 2 4 4 6 8 10 11 11 11 10 10 10 10 12 13 13 14 15 15 16 17 19 20
0 2 4 5 4 4 2 3 5 5 3 3 7 9 12 6 5 5 4 1 4 3 2 3 4 7 10 10 9 10 11 11 12 15 17 17 18 18 19 21 22 24 24 25
1 3 2 6 8 4 6 6 9 10 6 6 4 5 13 14 5 5 3 2 2 3 3 2 4 4 9 8 9 11 13 14 14 17 18 19 21 22 24 26 26 27 28 27
1 2 2 5 1 3 6 9 10 11 3 11 15 22 4 3 2 4 5 4 2 3 2 2 3 5 8 6 9 13 14 17 18 21 22 21 23 24 25 26 26 27 27 28
1 1 3 5 2 3 7 8 11 5 4 7 6 10 2 4 4 5 4 6 5 5 5 4 2 3 7 7 8 11 13 15 17 19 19 20 21 22 23 23 24 25 25 27
2 2 1 4 6 3 6 3 5 6 7 15 8 5 6 5 5 5 4 6 7 7 6 5 5 5 5 6 7 8 8 13 16 18 18 18 19 21 22 23 23 22 22 23
1 2 3 1 2 8 1 3 6 7 7 10 15 7 5 3 3 5 6 5 7 8 8 11 10 7 6 7 6 8 10 12 14 15 16 16 18 20 19 20 20 19 20 20
3 1 1 1 1 4 6 4 5 3 4 3 7 7 7 4 2 4 7 6 5 14 16 15 13 10 8 8 7 9 10 12 13 12 12 12 14 15 16 15 14 14 15 15
2 2 4 2 3 9 6 4 5 5 6 2 5 5 8 5 5 2 8 4 11 15 18 16 15 14 12 11 11 11 10 11 11 11 10 10 10 10 10 10 10 10 11 12
6 5 3 2 1 7 5 3 4 6 4 3 3 6 8 4 2 4 8 8 9 12 18 19 18 17 14 14 13 12 12 13 12 12 11 9 8 8 8 8 9 9 9 9
3 5 3 9 6 6 7 7 5 5 6 4 3 6 8 7 6 8 9 11 11 17 18 21 20 18 17 18 17 17 14 14 14 13 12 12 10 10 10 11 12 11 10 9
4 5 4 1 6 13 15 12 7 8 8 5 6 6 10 10 9 10 7 11 11 18 19 22 21 20 21 22 21 19 18 17 16 15 14 13 12 11 11 11 10 10 10 10
5 8 5 7 17 16 16 10 11 5 5 9 7 7 12 10 8 11 10 12 13 20 22 26 25 23 27 27 26 23 21 21 20 18 17 17 16 15 15 15 14 15 14 14
6 7 6 7 6 6 10 6 1 4 7 8 8 8 8 12 12 12 12 15 18 19 22 24 26 26 31 29 29 28 26 25 24 23 22 22 20 18 18 17 18 19 18 18
Wind_Direction
226 90 217 215 215 171 139 217 248 277 280 284 248 274 275 246 255 243 192 192 172 156 112 32 2 338 331 334 332 325 320 319 318 310 307 308 302 297 297 294 287 279 260 248
65 235 214 129 126 157 159 276 276 282 61 346 292 291 288 284 257 201 177 163 175 183 348 18 359 343 340 339 335 332 323 319 316 310 311 304 300 291 291 297 291 281 253 238
191 136 138 154 226 264 229 209 246 247 338 288 320 305 318 333 87 99 155 176 162 88 17 2 345 339 343 342 339 334 328 325 324 322 316 310 301 290 287 289 299 257 205 190
241 152 180 209 238 155 291 65 17 334 36 289 68 283 292 213 232 235 234 222 94 35 14 340 332 358 356 350 347 339 335 329 329 326 318 308 294 294 288 288 294 250 164 173
253 179 195 205 222 144 227 10 298 202 126 35 337 60 273 179 258 246 243 172 58 17 345 325 344 17 359 349 346 339 333 335 334 328 317 305 298 295 294 288 290 70 44 8
247 61 207 220 51 166 13 19 51 73 94 337 233 137 273 207 213 209 113 62 12 325 322 326 24 3 352 344 339 335 331 330 332 328 321 308 304 302 299 292 295 11 12 328
279 196 86 84 113 15 60 60 333 354 323 226 192 213 255 245 224 199 253 304 290 313 317 19 14 1 347 345 340 335 331 327 332 329 324 317 309 304 300 303 341 345 343 324
206 285 162 20 182 168 162 147 151 250 270 277 237 237 254 231 257 241 222 250 298 4 8 30 359 341 350 342 335 329 331 331 331 328 324 319 311 306 300 295 300 329 317 298
284 266 103 64 38 85 242 88 150 91 97 316 242 279 290 310 298 299 295 332 323 323 338 310 336 351 350 339 329 334 337 332 331 331 328 326 323 318 292 246 173 201 234 252
301 324 155 130 56 17 111 164 59 12 357 304 286 283 243 285 276 280 292 304 279 275 295 325 351 356 340 337 340 342 341 339 341 339 341 338 341 335 168 123 113 127 137 137
136 135 160 79 191 175 72 95 50 121 138 186 296 270 223 208 211 247 279 278 240 265 304 346 344 346 336 344 349 347 353 356 359 358 2 13 33 86 105 98 102 110 118 113
193 213 256 239 243 242 165 179 152 125 260 231 154 272 218 212 211 217 276 268 260 212 313 340 347 336 342 351 358 358 4 14 23 29 39 47 73 91 95 97 103 111 107 110
273 229 309 257 62 9 184 221 149 118 74 216 147 261 307 303 303 278 259 261 297 336 356 350 333 327 341 353 4 15 28 33 49 64 69 69 75 86 93 99 104 105 107 108
245 276 225 226 207 129 199 215 194 140 131 212 232 287 293 301 283 297 281 265 285 294 290 296 332 336 353 9 23 35 48 56 66 71 71 68 74 81 86 91 93 97 101 101
272 252 252 267 253 192 217 191 193 202 200 193 263 240 286 296 287 249 237 250 294 329 356 312 324 320 0 29 49 58 61 62 66 63 63 65 75 81 85 86 88 92 93 92
70 294 341 281 20 167 260 220 206 216 262 274 278 285 266 296 308 287 252 212 227 249 240 283 309 340 8 55 66 71 75 77 81 77 70 71 73 78 80 88 91 94 96 97
214 324 5 270 330 304 305 221 182 191 219 162 185 226 292 291 277 254 232 200 192 204 186 193 211 358 38 59 90 91 93 96 89 87 88 89 87 86 88 94 94 94 96 100
204 107 221 277 348 352 245 214 170 186 228 218 274 246 215 231 243 241 210 178 189 185 184 200 159 119 92 91 105 109 100 106 103 101 103 103 102 100 101 101 97 97 97 96
86 144 276 283 241 290 4 232 155 170 282 203 224 239 232 269 335 292 197 184 183 185 186 186 176 155 152 132 130 128 119 115 110 110 113 113 114 110 106 102 101 101 100 95
185 162 172 340 313 231 239 252 178 153 333 227 192 201 179 161 44 258 184 169 175 180 178 178 179 178 174 162 158 144 131 121 114 115 110 113 113 109 107 106 106 104 104 104
179 197 213 220 277 284 251 210 166 69 237 254 187 193 165 191 202 206 136 151 172 183 183 180 183 191 189 177 176 166 152 137 130 125 118 111 108 106 107 106 103 106 110 111
186 169 200 125 190 285 162 110 148 222 298 219 229 194 207 246 270 171 164 167 171 177 184 190 190 198 193 190 185 181 174 160 156 150 143 138 131 123 124 125 120 123 123 124
226 200 202 200 223 231 208 219 234 184 204 238 204 200 187 193 220 187 182 180 188 188 192 194 198 200 201 198 196 194 188 180 174 170 166 165 162 160 159 162 163 164 165 172
228 172 229 338 263 249 252 242 235 212 215 210 232 199 184 200 184 204 191 186 189 193 194 196 199 205 208 205 205 207 195 188 187 187 186 187 190 189 191 193 196 200 204 208
201 150 212 258 279 283 276 254 262 245 226 241 234 213 213 199 201 188 203 202 200 195 194 196 199 206 212 207 208 204 203 199 198 201 201 203 206 207 210 216 220 224 229 232
176 211 202 233 241 233 272 297 140 216 245 242 222 234 226 202 209 193 205 202 201 201 196 197 204 208 215 211 211 207 206 206 205 206 209 214 218 222 226 231 236 239 244 243